ROMMA est une association bénévole à but non lucratif. Votre soutien est indispensable : ADHERER à ROMMA ou FAIRE un DON

La Beaume - (05, Hautes Alpes)

Buëch (820 m)   Longitude: 5° 40' 9'' E   Latitude: 44° 32' 3'' N Station partenaire n°75
 

Détail journalier du     <<     >>

Température Precipitation Humidité Pression Vent Dir Rafale Dir. rafale Ensol.
Heure (°C) (mm) (%) (hPa) (km/h) (km/h) (min)
01:00 7.708810202OSO6OSO0
02:00 7.309110192SO6SO0
03:00 8.708910202OSO6OSO0
04:00 8.009110191SO5SO0
05:00 7.209210192SO6ONO0
06:00 7.109310193N8OSO0
07:00 7.309310191SO6SO0
08:00 6.609210192SO6SO0
09:00 7.909410191SO3SO0
10:00 8.009410201S5SSO0
11:00 8.709310201SSE5SSE0
12:00 10.408610202N6SE0
13:00 12.608110192N11SE0
14:00 13.907610186SE15S0
15:00 13.907710189SSE24SSE0
16:00 13.9080101811SSE24S0
17:00 14.107710186SSE13SSE0
18:00 13.907710186SSE13S0
19:00 13.208110182S6S0
20:00 12.20.28910182O6O0
21:00 12.109110192SO10S0
22:00 11.909110192ESE10SO0
23:00 11.809210192ONO6O0
minuit 11.809110192O5O0

Graphique du 17-10-2019

 

Serveur OMMA